GW0110 Weather Reports


time (UTC)temp
F
wind
direction
speed
knots
gust
knots
rain 1hr
in
rain 24hr
in
rain mn
in
humidity
%
barometer
mb
20260507153036 50 49 1.7 6.1 0.00 0.88 0.04 44 1009.1
20260507151513 50 294 3.5 7.8 0.00 0.92 0.04 48 1009.1
20260507150011 49 233 0.9 8.7 0.00 0.92 0.04 60 1009.3
20260507144507 47 262 1.7 7.8 0.00 0.92 0.04 62 1009.2
20260507143004 46 275 1.7 7.0 0.00 0.92 0.04 68 1009.3
20260507141501 45 336 0.9 2.6 0.00 0.92 0.04 74 1009.5
20260507140059 44 310 0.9 3.5 0.00 0.92 0.04 74 1009.4
20260507134601 44 272 0.0 8.7 0.00 0.92 0.04 76 1009.3
20260507133105 44 293 1.7 4.3 0.00 0.92 0.04 77 1009.2
20260507131612 44 288 0.9 1.7 0.00 0.92 0.04 77 1009.4
20260507130055 43 86 0.0 1.7 0.00 0.92 0.04 77 1009.5
20260507124552 43 222 0.0 1.7 0.00 0.92 0.04 78 1009.5
20260507123052 42 119 0.9 2.6 0.00 0.92 0.04 78 1009.4
20260507121527 42 237 0.0 5.2 0.00 0.92 0.04 78 1009.5
20260507120027 42 91 1.7 3.5 0.00 0.92 0.04 79 1009.2
20260507114523 41 122 0.0 0.9 0.00 0.92 0.04 79 1009.1
20260507113024 40 127 0.0 2.6 0.00 0.92 0.04 79 1009.3
20260507111526 39 88 0.0 0.9 0.00 0.92 0.04 79 1009.1
20260507110022 38 84 0.0 1.7 0.00 0.92 0.04 79 1009.3
20260507104551 37 126 0.0 1.7 0.00 0.92 0.04 79 1009.2
20260507103050 36 127 0.0 0.9 0.00 0.92 0.04 79 1009.2
20260507101552 36 104 0.0 0.9 0.00 0.92 0.04 79 1008.9
20260507100048 36 104 0.0 0.0 0.00 0.92 0.04 79 1009.0
20260507094547 37 104 0.0 1.7 0.00 0.92 0.04 79 1008.9
20260507093051 37 117 0.0 0.9 0.00 0.92 0.04 78 1009.0
20260507091543 36 44 0.0 0.9 0.00 0.92 0.04 78 1009.2
20260507090040 37 303 0.0 0.0 0.00 0.92 0.04 78 1009.1
20260507084538 37 277 0.0 0.0 0.00 0.92 0.04 78 1009.2
20260507083036 38 277 0.0 0.0 0.00 0.92 0.04 78 1009.2
20260507081534 38 277 0.0 0.0 0.00 0.92 0.04 78 1009.0
20260507080037 39 277 0.0 0.0 0.00 0.92 0.04 78 1009.0
20260507074528 40 277 0.0 0.0 0.00 0.92 0.04 78 1008.6
20260507073025 41 277 0.0 0.0 0.00 0.92 0.04 78 1008.5
20260507071554 41 277 0.0 0.9 0.00 0.92 0.04 78 1008.3
20260507070055 41 277 0.0 0.9 0.00 0.92 0.04 78 1008.5
20260507064552 41 277 0.0 0.9 0.00 0.92 0.04 78 1008.4
20260507063049 41 300 0.0 1.7 0.00 0.92 0.04 78 1008.4
20260507061555 41 275 0.0 0.9 0.00 0.93 0.04 78 1008.7
20260507060047 41 281 0.0 3.5 0.00 0.93 0.04 78 1008.8
20260507054547 42 294 0.0 2.6 0.00 0.93 0.04 78 1008.8
20260507053110 42 321 0.9 3.5 0.00 0.93 0.04 78 1008.7
20260507051545 42 304 0.9 4.3 0.00 0.93 0.04 78 1008.7
20260507050045 42 275 0.9 3.5 0.00 0.93 0.04 78 1008.6
20260507044542 42 306 0.9 3.5 0.00 0.93 0.04 78 1008.7
20260507043011 42 286 1.7 3.5 0.00 0.94 0.04 78 1008.5
20260507041508 42 304 0.0 3.5 0.00 0.94 0.04 78 1008.5
20260507040004 42 289 0.0 1.7 0.00 0.94 0.04 78 1008.2
20260507034504 42 292 0.0 2.6 0.01 0.94 0.04 78 1008.6
20260507033003 42 298 0.9 1.7 0.01 0.94 0.04 78 1008.8
20260507031600 43 296 0.0 1.7 0.01 0.94 0.04 78 1008.6
20260507031500 43 294 0.0 2.6 0.01 0.94 0.04 78 1008.7
20260507030029 43 289 0.0 2.6 0.02 0.94 0.04 78 1009.0
20260507024530 43 296 0.9 2.6 0.03 0.93 0.03 78 1009.0
20260507023032 43 281 0.9 2.6 0.03 0.93 0.03 78 1009.1
20260507021524 43 278 1.7 4.3 0.04 0.93 0.03 78 1008.9
20260507020023 43 281 0.9 4.3 0.05 0.92 0.02 78 1009.0
20260507014523 43 313 0.9 3.5 0.05 0.90 0.00 78 1008.9
20260507013053 43 314 1.7 6.1 0.07 0.90 0.00 78 1009.0
20260507011550 43 296 0.9 4.3 0.07 0.89 0.89 78 1008.6
20260507010049 43 313 1.7 4.3 0.06 0.87 0.87 78 1008.4
20260507004546 43 277 1.7 9.6 0.04 0.85 0.85 78 1008.3
20260507003041 44 285 0.9 4.3 0.02 0.83 0.83 78 1008.0
20260507001547 44 306 1.7 7.0 0.01 0.82 0.82 78 1007.7
20260507000011 44 279 1.7 9.6 0.00 0.81 0.81 78 1007.4
20260506234505 45 294 0.9 3.5 0.00 0.81 0.81 78 1007.2
20260506233035 45 263 0.9 7.0 0.00 0.81 0.81 78 1007.0
20260506231533 45 278 0.9 4.3 0.00 0.81 0.81 78 1006.9
20260506230029 45 294 0.9 3.5 0.00 0.81 0.81 78 1006.8
20260506224528 46 283 0.9 5.2 0.00 0.81 0.81 78 1006.7
20260506223027 46 265 0.0 1.7 0.02 0.81 0.81 78 1006.6
20260506221525 46 273 0.9 4.3 0.07 0.81 0.81 78 1006.4
20260506220053 46 286 0.9 3.5 0.17 0.81 0.81 78 1006.3
20260506214601 46 306 0.9 4.3 0.21 0.81 0.81 77 1006.4
20260506213118 47 14 0.9 10.4 0.20 0.79 0.79 77 1006.4
20260506211514 48 307 0.0 7.8 0.15 0.83 0.74 77 1006.0
20260506210013 51 290 2.6 7.0 0.04 0.71 0.62 75 1005.2
20260506204509 57 322 1.7 4.3 0.02 0.69 0.60 76 1004.7
20260506203008 58 138 0.9 5.2 0.02 0.68 0.59 77 1004.8
20260506201605 58 149 0.9 7.8 0.02 0.68 0.59 77 1004.9
20260506200108 58 153 2.6 11.3 0.01 0.67 0.57 77 1005.0
20260506194605 58 140 2.6 10.4 0.01 0.67 0.57 77 1005.0
20260506193100 58 167 4.3 8.7 0.04 0.67 0.57 77 1005.1
20260506193058 58 165 4.3 8.7 0.04 0.67 0.57 77 1005.1
20260506191604 57 134 1.7 6.1 0.07 0.66 0.56 77 1005.3
20260506190052 57 84 1.7 4.3 0.11 0.66 0.56 77 1005.6
20260506184550 56 252 1.7 6.1 0.33 0.66 0.56 77 1005.7
20260506183051 56 130 1.7 3.5 0.38 0.63 0.54 77 1005.8
20260506181555 56 121 0.9 1.7 0.36 0.59 0.50 77 1006.0
20260506180103 56 96 0.9 3.5 0.33 0.54 0.45 77 1006.0
20260506174539 56 302 0.9 7.8 0.14 0.33 0.24 76 1006.5
20260506173041 57 163 1.7 5.2 0.07 0.25 0.16 75 1006.2
20260506171535 57 123 1.7 4.3 0.06 0.23 0.14 75 1006.3
20260506170031 57 152 4.3 8.7 0.05 0.21 0.12 75 1006.4
20260506164530 57 149 3.5 7.8 0.03 0.19 0.10 75 1006.7
20260506163029 56 132 5.2 8.7 0.03 0.18 0.09 75 1006.6
20260506161524 57 115 6.1 11.3 0.03 0.17 0.08 74 1006.9
20260506160021 57 128 5.2 9.6 0.03 0.16 0.07 73 1007.3
20260506154519 57 147 2.6 8.7 0.04 0.16 0.07 74 1007.7